Regional Weather Roundup
Issued by NWS

Home | Current Version | Previous Version | Graphics & Text | Print | Product List | Glossary On
Versions: 1 2 3 4 5 6 7 8 9 10 11 12 13 14 15 16 17 18 19 20 21 22 23 24 25 26 27 28 29 30 31 32 33 34 35 36 37 38 39 40 41 42 43 44 45 46 47 48 49 50
000
ASUS45 KBOI 230610
RWRID

IDAHO REGIONAL WEATHER ROUNDUP
NATIONAL WEATHER SERVICE BOISE ID
1100 PM MST WED FEB 22 2017

NOTE: "FAIR" INDICATES FEW OR NO CLOUDS BELOW 12000 FEET
WITH NO SIGNIFICANT WEATHER AND/OR OBSTRUCTIONS TO VISIBILITY

IDZ012-014-230700-
SOUTHWEST IDAHO


CITY           SKY/WX    TMP DP  RH WIND       PRES   REMARKS
BOISE          FLURRIES  33  30  88 NW16      29.84S WCI  23
CALDWELL       CLOUDY    33  30  88 W18       29.88F WCI  22
MOUNTAIN HOME  CLOUDY    33  33 100 NW22G29   29.80F WCI  20
$$

IDZ016-017-230700-
SOUTHCENTRAL IDAHO


CITY           SKY/WX    TMP DP  RH WIND       PRES   REMARKS
BURLEY         MOCLDY    31  25  78 SW9       29.73F WCI  23
JEROME           N/A    N/A N/A N/A MISG      29.74F
TWIN FALLS     LGT SNOW  29  27  92 W9        29.74F FOG     WCI  20
$$

IDZ019>023-230700-
SOUTHEAST IDAHO


CITY           SKY/WX    TMP DP  RH WIND       PRES   REMARKS
IDAHO FALLS    CLOUDY    31  28  89 N9        29.71F WCI  23
POCATELLO      LGT SNOW  29  28  96 SW5       29.73F FOG     WCI  24
REXBURG        CLOUDY    28  23  81 NE8       29.72F WCI  20
$$

IDZ006-010-011-018-031-032-230700-
CENTRAL IDAHO MOUNTAINS


CITY           SKY/WX    TMP DP  RH WIND       PRES   REMARKS
MCCALL         CLOUDY    25  19  78 NW6       29.79S WCI  18
HAILEY         CLOUDY    28  19  69 NW9       29.72F WCI  20
STANLEY          N/A     17  14  88 CALM      29.71F
SALMON         CLOUDY    34  25  69 NE10      29.79S WCI  26
CHALLIS        CLOUDY    28  21  75 NW5       29.74F WCI  23
$$

IDZ002-004-006-007-026-230700-
NORTHERN IDAHO


CITY           SKY/WX    TMP DP  RH WIND       PRES   REMARKS
LEWISTON       MOCLDY    35  28  75 SW8       30.04S WCI  29
LOWELL           N/A     35  33  92 CALM      30.03S
COEUR D`ALENE  FOG       25  25 100 CALM      30.03S VSB 1/4
MULLAN PASS    CLOUDY    20  17  88 N5        29.84F FOG     WCI  13
$$



USA.gov is the U.S. government's official web portal to all federal, state and local government web resources and services.